Temp
76 80 81 83 83 85 85 81 85 85 83 85 86 82 81 77 83 88 88 80 79 80 82 83 83 83 83 83 83 82 82 82 82 81 81 81 81 81 81 81 81 80 80
81 83 83 83 84 84 85 84 82 83 85 85 84 79 80 83 79 82 88 88 79 79 81 82 82 82 83 83 83 82 82 82 82 82 81 81 81 81 81 81 81 81 81
80 81 82 82 84 84 82 83 83 83 79 80 83 75 82 82 76 82 78 87 88 79 80 81 82 82 82 83 83 83 81 81 81 81 81 81 81 80 81 81 81 81 81
79 79 82 83 84 79 83 83 83 80 81 81 82 80 72 73 74 78 76 80 88 88 82 80 81 81 82 83 83 82 81 81 81 81 81 81 80 80 80 80 80 80 80
80 79 79 82 81 81 76 75 80 79 79 78 80 79 74 73 74 82 78 82 87 85 87 81 79 80 82 84 83 82 82 81 81 81 81 80 80 79 80 79 79 79 79
76 79 77 80 81 81 76 77 78 78 79 77 78 72 72 73 74 83 81 79 87 86 85 84 85 84 80 82 82 82 82 82 81 81 81 80 80 80 79 79 79 79 79
76 73 78 79 79 79 78 78 77 78 78 78 74 76 70 71 79 74 80 75 77 84 83 87 85 86 87 79 79 81 82 83 82 81 81 80 80 79 79 79 78 79 79
76 78 79 81 80 81 78 77 78 79 79 78 74 74 68 68 72 77 73 73 74 74 75 81 83 85 86 85 86 80 80 81 82 82 81 80 79 79 79 78 78 78 78
78 79 79 79 79 79 79 78 75 71 70 75 77 73 66 65 71 78 79 78 79 78 76 77 77 78 84 85 83 82 79 77 80 81 81 81 80 79 79 78 78 78 78
79 80 80 80 79 79 76 75 74 73 70 68 71 73 71 70 67 70 80 79 76 76 84 75 83 75 85 84 83 80 77 76 78 79 80 81 81 80 80 79 78 78 77
76 77 78 79 79 79 76 76 75 74 71 69 70 72 70 68 68 69 66 71 76 79 83 83 72 75 74 81 86 82 76 76 77 77 78 79 79 80 81 81 79 79 78
74 76 76 76 78 78 79 78 74 77 73 72 76 74 72 69 69 69 69 68 67 77 85 80 80 83 79 81 82 78 77 76 75 75 76 76 78 79 80 81 82 81 80
73 74 77 76 78 78 78 79 77 77 75 72 72 75 72 71 74 73 68 67 69 77 75 77 83 86 82 76 82 78 78 75 75 73 73 74 75 76 77 78 80 82 82
73 75 76 78 78 78 81 79 79 77 77 74 77 77 74 69 70 74 71 70 71 73 76 78 77 84 84 85 84 76 78 74 73 72 72 72 73 74 74 75 76 78 81
76 75 76 77 78 77 77 77 73 77 78 77 76 76 76 72 70 71 71 76 77 70 71 75 75 81 82 81 78 85 81 74 73 72 71 71 71 71 72 73 73 74 76
76 75 76 76 75 74 75 74 75 74 73 74 77 76 74 71 69 69 72 72 75 75 69 72 83 84 84 84 81 85 85 75 74 72 71 70 70 71 71 71 72 72 73
76 76 75 75 75 75 74 74 74 74 74 73 74 75 75 75 72 69 68 68 70 72 71 71 78 81 79 80 83 83 84 84 85 72 70 70 70 70 70 70 70 70 71
76 75 75 74 75 75 75 75 75 74 73 72 72 72 71 72 67 70 71 68 68 69 68 67 74 74 69 71 76 77 82 86 85 78 70 69 69 69 68 67 67 68 68
75 75 75 74 74 74 74 74 74 72 72 72 70 70 70 66 62 61 61 61 63 64 65 67 71 72 70 69 68 70 72 78 83 76 71 69 69 68 68 67 65 64 64
75 74 73 73 72 73 73 73 73 72 71 69 67 67 67 67 65 60 58 58 58 59 59 60 60 66 70 75 74 71 69 74 78 82 78 74 70 70 69 67 67 67 62
74 73 72 72 72 73 74 71 70 69 69 68 69 70 69 67 65 64 68 63 62 63 59 57 58 60 66 70 69 72 70 73 74 76 77 80 81 81 81 73 74 70 67
71 72 71 71 71 74 64 66 69 70 68 67 67 68 68 67 66 63 62 62 62 62 62 63 64 63 60 64 69 68 69 67 67 78 72 74 78 77 79 82 73 68 66
69 69 69 70 69 70 64 64 66 70 69 67 67 67 70 70 66 66 65 64 64 62 61 61 61 62 61 62 61 61 63 64 65 72 70 68 75 74 78 82 69 66 65
67 68 68 68 69 69 63 63 64 69 68 66 66 67 65 65 65 63 64 64 65 65 66 65 64 64 64 64 62 61 60 61 64 68 68 63 72 72 76 78 69 66 65
67 67 69 68 67 68 60 62 63 68 68 66 67 66 65 65 60 58 61 61 61 63 64 61 60 59 59 60 61 63 62 61 62 66 71 68 70 70 73 74 76 67 63
67 70 68 68 60 67 58 59 63 71 67 69 66 66 61 60 56 56 60 61 59 62 63 63 63 63 63 64 60 61 63 61 61 62 69 65 68 69 68 74 75 77 77
MSLP
1017.85 1017.81 1017.76 1017.71 1017.71 1017.62 1017.47 1017.63 1017.27 1017.18 1017.24 1017.23 1017.10 1017.28 1017.36 1017.52 1017.49 1017.33 1017.40 1017.76 1017.86 1017.90 1018.03 1018.14 1018.42 1018.53 1018.70 1018.94 1019.08 1019.26 1019.54 1019.73 1019.89 1020.06 1020.21 1020.36 1020.56 1020.74 1020.82 1020.89 1021.00 1021.12 1021.33
1017.34 1017.25 1017.28 1017.33 1017.37 1017.39 1017.32 1017.31 1017.18 1016.98 1016.91 1016.89 1016.86 1017.17 1017.03 1016.87 1017.03 1017.16 1016.92 1016.81 1017.33 1017.35 1017.47 1017.67 1017.88 1018.09 1018.09 1018.37 1018.56 1018.74 1018.98 1019.22 1019.48 1019.66 1019.81 1019.97 1020.14 1020.40 1020.58 1020.68 1020.73 1020.81 1020.90
1017.11 1017.15 1017.13 1017.18 1017.12 1017.20 1017.29 1017.15 1017.10 1017.00 1017.06 1016.91 1016.80 1016.97 1016.57 1016.53 1016.75 1016.47 1016.84 1016.45 1016.30 1016.80 1016.94 1017.06 1017.26 1017.45 1017.69 1017.91 1018.02 1018.17 1018.52 1018.83 1019.03 1019.20 1019.39 1019.58 1019.77 1020.08 1020.15 1020.30 1020.38 1020.39 1020.42
1016.72 1016.83 1016.80 1016.82 1016.86 1017.20 1016.85 1016.64 1016.62 1016.67 1016.57 1016.51 1016.43 1016.47 1016.54 1016.64 1016.58 1016.30 1016.33 1016.32 1015.80 1015.84 1016.31 1016.44 1016.52 1016.92 1017.17 1017.22 1017.34 1017.57 1018.02 1018.27 1018.62 1018.69 1018.92 1019.13 1019.37 1019.58 1019.62 1019.88 1019.98 1020.04 1020.00
1016.30 1016.63 1016.37 1016.37 1016.60 1016.51 1016.77 1016.68 1016.28 1016.38 1016.26 1016.25 1016.17 1016.07 1016.14 1016.13 1015.87 1015.70 1015.80 1015.66 1015.37 1015.64 1015.49 1015.86 1016.03 1016.20 1016.44 1016.65 1016.73 1017.08 1017.41 1017.62 1017.92 1018.16 1018.37 1018.57 1018.78 1019.10 1019.17 1019.36 1019.53 1019.62 1019.67
1016.40 1016.23 1016.18 1016.09 1016.14 1016.11 1016.30 1016.27 1015.97 1015.92 1015.94 1015.84 1015.75 1015.85 1015.72 1015.72 1015.67 1015.43 1015.19 1015.03 1014.70 1014.86 1015.10 1015.44 1015.43 1015.59 1015.92 1016.18 1016.45 1016.69 1016.78 1017.04 1017.22 1017.45 1017.53 1017.84 1018.18 1018.41 1018.66 1018.81 1019.01 1019.11 1019.23
1015.84 1016.44 1016.07 1015.80 1015.94 1015.95 1015.64 1015.56 1015.49 1015.44 1015.34 1015.34 1015.60 1015.35 1015.48 1015.25 1015.15 1014.83 1014.45 1014.73 1014.56 1014.30 1014.54 1014.70 1015.04 1015.06 1015.02 1015.63 1015.87 1016.06 1016.27 1016.34 1016.53 1016.65 1016.86 1017.07 1017.47 1017.76 1018.00 1018.27 1018.42 1018.57 1018.74
1015.65 1015.68 1015.60 1015.39 1015.26 1015.34 1015.43 1015.20 1014.91 1014.74 1014.83 1014.90 1014.84 1014.97 1015.20 1015.13 1014.43 1014.23 1014.22 1014.30 1014.36 1014.38 1014.40 1014.40 1014.48 1014.48 1014.54 1014.79 1014.82 1015.53 1015.85 1015.97 1015.93 1016.07 1016.26 1016.38 1016.63 1017.02 1017.32 1017.52 1017.85 1017.99 1018.09
1014.68 1014.78 1014.86 1014.97 1015.03 1015.04 1014.68 1014.75 1014.95 1014.90 1014.83 1014.70 1014.84 1014.85 1014.97 1014.67 1014.12 1013.68 1013.48 1013.54 1013.65 1013.91 1014.09 1014.11 1014.20 1014.24 1014.17 1014.41 1014.74 1014.90 1015.24 1015.31 1015.56 1015.54 1015.71 1015.93 1016.02 1016.21 1016.55 1016.90 1017.17 1017.40 1017.54
1014.36 1014.40 1014.45 1014.44 1014.47 1014.46 1014.49 1014.61 1014.70 1014.76 1014.82 1014.86 1014.78 1014.81 1014.69 1014.58 1014.42 1013.50 1013.29 1013.30 1013.54 1013.58 1013.24 1013.68 1013.31 1014.02 1013.74 1014.04 1014.34 1014.60 1014.91 1015.13 1015.21 1015.34 1015.26 1015.36 1015.61 1015.68 1015.91 1016.15 1016.41 1016.63 1016.84
1014.22 1014.34 1014.33 1014.16 1014.22 1014.25 1014.17 1014.14 1014.36 1014.25 1014.37 1014.46 1014.58 1014.49 1014.56 1014.38 1014.34 1014.35 1013.57 1013.28 1013.32 1013.16 1012.93 1012.99 1013.53 1013.73 1013.91 1013.96 1013.79 1014.15 1014.61 1014.77 1014.95 1015.05 1015.05 1015.13 1015.27 1015.38 1015.34 1015.42 1015.64 1015.87 1016.07
1014.44 1014.16 1013.92 1013.84 1013.57 1013.62 1013.62 1013.67 1013.61 1013.81 1013.88 1013.95 1013.77 1013.95 1013.96 1014.01 1013.81 1013.91 1013.90 1013.66 1013.38 1012.66 1012.37 1012.88 1013.05 1013.02 1013.50 1013.59 1013.69 1014.03 1014.29 1014.52 1014.69 1014.69 1014.73 1014.82 1014.92 1015.03 1014.99 1014.81 1014.88 1015.06 1015.27
1014.27 1014.20 1014.04 1013.47 1013.10 1013.05 1013.09 1013.38 1013.42 1013.14 1013.28 1013.39 1013.54 1013.48 1013.58 1013.67 1013.45 1013.31 1013.42 1013.37 1013.18 1012.69 1012.64 1012.85 1012.50 1012.39 1013.07 1013.53 1013.51 1013.90 1013.99 1014.14 1014.33 1014.43 1014.47 1014.45 1014.48 1014.53 1014.48 1014.44 1014.32 1014.30 1014.51
1014.05 1013.88 1013.47 1013.21 1012.91 1012.83 1012.57 1012.92 1013.08 1013.24 1013.32 1013.26 1012.97 1013.05 1013.15 1013.37 1013.37 1013.39 1013.22 1012.96 1012.92 1012.69 1012.62 1012.40 1012.61 1012.64 1012.84 1013.02 1013.22 1013.83 1013.85 1014.11 1014.13 1014.09 1014.13 1014.11 1014.06 1014.10 1014.03 1013.97 1013.97 1013.74 1013.82
1013.93 1013.61 1013.40 1013.03 1012.93 1012.80 1012.93 1013.07 1013.42 1013.29 1013.35 1013.19 1013.12 1013.15 1013.04 1012.98 1013.05 1013.27 1013.33 1013.07 1012.55 1012.52 1012.71 1012.64 1012.63 1013.13 1013.09 1013.49 1013.65 1013.48 1013.76 1013.94 1013.83 1013.75 1013.73 1013.71 1013.55 1013.58 1013.44 1013.36 1013.32 1013.25 1013.31
1013.40 1013.65 1013.55 1013.42 1013.40 1013.34 1013.39 1013.39 1013.53 1013.55 1013.56 1013.52 1013.25 1013.14 1013.17 1013.25 1013.24 1013.50 1013.37 1013.22 1013.16 1012.87 1012.85 1012.93 1012.58 1012.99 1013.12 1013.27 1013.53 1013.45 1013.49 1013.76 1013.68 1013.68 1013.51 1013.33 1013.22 1013.01 1012.96 1012.77 1012.66 1012.67 1012.69
1013.54 1013.32 1013.45 1013.60 1013.62 1013.56 1013.75 1013.57 1013.67 1013.60 1013.48 1013.51 1013.54 1013.33 1013.25 1013.38 1013.49 1013.88 1013.83 1013.66 1013.59 1013.22 1013.33 1013.41 1013.27 1013.25 1013.37 1013.32 1013.17 1013.25 1013.20 1013.12 1012.87 1013.28 1013.25 1013.05 1012.74 1012.56 1012.46 1012.37 1012.15 1011.99 1012.10
1013.69 1013.77 1013.66 1013.67 1013.80 1013.80 1013.80 1013.75 1013.53 1013.67 1013.68 1013.81 1013.82 1013.81 1013.95 1014.00 1014.21 1014.15 1014.13 1014.21 1014.06 1013.56 1013.60 1013.45 1013.68 1013.62 1013.66 1013.64 1013.56 1013.47 1012.94 1012.58 1012.43 1012.38 1012.71 1012.51 1012.35 1012.18 1012.02 1011.73 1011.58 1011.31 1011.34
1014.16 1014.04 1013.85 1013.78 1013.85 1013.99 1014.05 1014.18 1014.14 1014.30 1014.37 1014.48 1014.53 1014.49 1014.59 1014.89 1014.98 1015.13 1015.16 1015.05 1014.66 1014.59 1014.34 1013.96 1013.78 1013.74 1013.72 1013.65 1013.66 1013.38 1013.20 1012.73 1012.31 1012.00 1012.01 1011.87 1011.70 1011.72 1011.69 1011.47 1011.13 1011.01 1010.80
1013.93 1014.00 1014.01 1014.29 1014.37 1014.44 1014.50 1014.50 1014.48 1014.67 1014.79 1014.91 1015.05 1015.17 1015.32 1015.40 1015.57 1015.96 1015.96 1015.95 1015.66 1015.23 1015.11 1014.86 1014.62 1014.02 1013.60 1013.29 1013.48 1013.19 1012.94 1012.46 1011.85 1011.65 1011.29 1011.33 1011.42 1011.31 1011.23 1011.06 1010.85 1010.57 1010.61
1014.09 1014.35 1014.42 1014.57 1014.60 1014.58 1014.67 1014.82 1014.88 1015.06 1015.16 1015.23 1015.29 1015.42 1015.76 1015.97 1016.05 1016.07 1015.76 1016.07 1015.84 1015.53 1015.46 1015.19 1014.97 1014.73 1014.11 1013.52 1013.22 1013.15 1012.77 1012.31 1011.96 1011.61 1010.99 1010.48 1010.46 1010.33 1010.15 1010.16 1010.06 1010.13 1010.14
1014.64 1014.67 1014.85 1014.87 1014.82 1014.80 1015.24 1015.22 1015.20 1015.36 1015.51 1015.50 1015.47 1015.71 1015.89 1016.07 1016.15 1016.28 1016.34 1016.26 1016.09 1015.66 1015.42 1015.17 1014.83 1014.63 1014.44 1014.10 1013.57 1013.41 1012.80 1012.45 1011.57 1011.05 1011.04 1010.52 1010.46 1010.13 1009.89 1009.45 1009.38 1009.67 1009.86
1015.23 1015.37 1015.43 1015.26 1015.42 1015.44 1015.62 1015.65 1015.70 1015.61 1015.67 1015.87 1015.94 1015.91 1015.74 1015.99 1016.23 1016.15 1016.02 1015.88 1015.63 1015.63 1015.69 1015.40 1014.79 1014.42 1014.10 1014.03 1014.13 1013.65 1013.17 1012.72 1011.91 1011.48 1011.29 1010.51 1010.32 1009.62 1009.43 1008.81 1008.85 1008.99 1009.19
1015.53 1015.65 1015.75 1015.76 1015.65 1015.70 1015.88 1015.89 1015.92 1015.84 1015.91 1016.01 1016.10 1016.12 1016.10 1016.17 1016.25 1016.37 1016.03 1015.55 1015.19 1014.91 1014.82 1014.78 1014.50 1014.09 1014.00 1013.87 1013.87 1013.58 1013.22 1012.75 1012.10 1011.61 1011.45 1010.30 1009.72 1009.02 1008.72 1008.42 1008.37 1008.39 1008.35
1015.73 1015.97 1016.11 1016.09 1015.98 1015.93 1016.09 1016.06 1016.03 1015.93 1015.87 1015.95 1016.06 1016.09 1016.14 1016.10 1016.36 1016.40 1015.91 1015.34 1014.97 1014.48 1014.19 1014.34 1014.31 1014.13 1013.94 1013.73 1013.50 1013.09 1012.25 1011.77 1010.89 1010.35 1010.20 1009.81 1009.19 1008.63 1008.22 1007.78 1007.40 1007.40 1007.61
1016.17 1016.18 1016.16 1016.15 1016.33 1016.06 1016.17 1016.06 1016.12 1015.73 1015.64 1015.55 1015.78 1015.79 1015.91 1016.14 1016.14 1016.11 1015.82 1015.16 1014.49 1013.91 1013.77 1013.53 1013.39 1013.13 1012.65 1012.35 1012.67 1012.61 1011.89 1011.04 1010.59 1009.92 1009.13 1009.48 1008.84 1008.46 1007.35 1006.96 1006.77 1006.61 1006.44
Wind_Speed
5 4 5 5 5 5 6 6 6 6 7 9 9 8 9 7 10 7 6 11 15 16 17 18 17 14 16 17 17 17 15 16 14 14 14 13 13 12 11 10 8 7 8
6 7 7 6 6 5 5 7 6 7 7 7 8 7 8 10 7 9 8 8 14 18 18 18 18 16 17 18 17 17 17 16 15 15 14 13 13 13 13 11 10 9 8
9 9 7 7 6 6 7 6 7 6 6 6 8 4 8 9 6 11 6 9 7 16 17 18 17 15 16 18 18 17 16 17 16 16 15 15 15 14 13 12 12 10 8
11 8 8 7 6 5 6 6 6 7 8 7 8 6 3 6 6 10 5 7 9 8 11 18 17 17 16 19 18 18 16 15 17 16 16 16 16 15 14 13 12 11 11
11 9 7 8 8 7 5 5 7 7 7 8 8 7 4 5 7 9 9 11 12 10 7 8 14 15 16 18 16 15 14 15 16 17 17 17 17 16 15 14 13 13 12
11 11 7 8 8 7 7 8 9 7 8 8 8 5 4 5 6 11 9 9 10 12 9 8 7 10 17 17 17 17 17 17 17 18 19 19 17 16 16 15 14 13 13
8 7 8 8 7 9 10 9 7 9 8 7 4 5 4 6 12 8 10 6 9 10 8 9 6 7 7 16 15 17 18 18 18 18 18 19 18 17 17 16 15 15 14
7 9 10 10 10 9 11 11 10 7 7 5 5 3 3 2 7 9 5 6 6 3 6 8 7 8 7 5 5 9 14 16 17 18 18 19 19 18 17 17 16 16 15
10 11 11 10 11 10 10 9 7 6 5 4 8 4 2 4 2 4 6 6 8 7 6 6 7 5 6 5 5 6 7 10 13 13 16 19 18 17 17 17 17 17 16
8 9 12 12 11 8 9 7 6 8 6 5 3 6 3 2 1 3 1 3 4 5 7 4 7 3 6 6 8 6 5 6 8 9 10 13 15 16 17 18 18 17 17
5 7 9 10 10 8 8 8 9 9 6 4 4 3 5 4 5 6 4 1 1 5 6 5 4 4 5 7 7 6 6 7 7 8 9 9 10 12 16 19 19 19 18
4 5 7 8 9 9 10 9 8 10 8 6 6 5 5 3 6 5 6 3 3 3 3 4 5 6 5 6 7 5 6 7 8 7 10 12 12 12 12 15 19 21 20
3 4 8 7 7 8 7 8 10 10 6 4 7 6 5 5 3 3 3 3 4 3 1 3 4 3 4 3 3 5 5 7 7 9 10 11 11 12 13 13 15 21 21
4 8 8 9 8 8 5 3 3 2 3 5 5 5 4 4 4 6 3 2 3 3 2 3 3 3 3 4 3 5 2 5 7 7 8 9 11 13 13 13 13 13 20
4 6 5 4 5 5 4 2 3 1 1 4 5 2 3 3 3 3 4 6 3 3 2 2 2 4 5 4 2 3 5 4 3 4 6 8 9 12 13 13 13 12 15
2 3 4 6 5 5 4 4 3 2 1 3 4 3 2 3 3 2 1 3 3 0 2 2 3 3 2 2 4 2 1 5 5 5 6 6 7 9 12 12 12 12 14
4 5 5 5 6 6 4 5 4 4 3 3 3 4 2 2 2 2 2 1 2 3 4 2 2 1 2 4 3 4 5 6 5 6 6 8 8 8 9 12 13 13 14
5 4 5 6 6 6 6 6 6 7 7 7 7 7 10 6 6 5 2 4 3 3 2 2 2 1 1 3 7 8 7 8 7 4 5 9 9 10 9 10 12 12 12
5 6 7 8 8 7 7 7 7 7 8 8 7 7 8 6 7 7 7 6 5 5 4 3 4 3 1 1 2 5 6 9 9 5 12 12 9 7 6 9 8 10 11
7 8 8 8 8 8 8 7 7 7 7 8 8 9 9 9 9 6 5 5 5 5 5 4 4 6 5 5 6 7 6 6 8 9 7 10 5 5 8 7 9 6 8
7 6 6 6 6 5 4 5 6 6 6 7 8 7 9 12 15 12 6 6 6 5 3 2 2 4 7 7 8 7 9 9 9 9 9 6 6 6 7 9 8 9 6
6 6 5 5 6 5 8 9 6 7 7 7 7 6 6 8 8 8 9 8 7 7 6 7 7 8 8 8 8 8 9 9 10 5 5 7 8 10 10 9 6 5 10
5 5 5 5 5 6 7 8 7 6 5 5 5 4 4 5 7 9 10 10 9 8 6 8 10 10 11 8 8 10 10 11 11 9 11 12 10 11 10 11 9 8 10
4 3 4 4 3 4 5 6 5 4 4 4 3 3 4 5 7 10 11 11 12 12 11 9 11 11 11 10 9 10 11 13 13 12 12 14 10 11 10 10 11 13 15
4 3 2 2 3 3 2 5 4 3 2 2 1 0 5 6 8 10 11 11 12 11 7 9 13 17 18 18 17 10 10 10 11 10 9 11 10 11 11 11 10 11 11
3 0 1 1 3 3 7 3 6 2 3 3 3 4 2 5 9 9 10 12 13 13 12 12 11 13 13 12 15 13 11 11 10 10 7 10 9 6 6 5 6 6 4
Wind_Direction
232 232 254 266 275 261 256 265 251 244 252 255 253 247 251 229 248 251 247 231 229 229 229 226 230 240 230 223 220 221 231 215 218 223 228 232 237 238 234 227 229 213 230
235 246 253 259 264 257 265 262 252 257 260 259 262 244 254 259 247 253 246 246 232 234 234 235 236 232 229 227 230 230 225 220 218 221 227 232 234 237 239 236 227 223 223
243 252 256 261 267 266 260 256 257 257 258 254 265 258 280 291 270 266 234 256 240 231 241 234 234 230 235 232 236 235 235 226 221 220 222 227 234 233 237 237 239 231 222
243 250 247 253 262 273 266 254 251 248 255 257 259 258 186 271 263 267 246 251 252 249 224 234 234 231 228 231 240 234 231 231 224 224 225 227 235 236 234 234 235 234 226
251 246 244 247 251 255 238 243 256 249 267 264 267 267 231 242 263 276 243 243 250 243 241 229 228 219 230 231 235 236 235 231 226 226 228 228 228 235 233 233 231 228 227
246 245 244 250 249 256 248 237 250 250 260 266 274 258 232 250 254 263 249 245 251 236 236 233 218 220 228 236 229 226 229 231 227 225 221 225 226 228 231 228 228 230 226
232 231 247 249 248 254 252 254 256 261 255 255 267 251 247 247 254 248 249 233 237 243 239 218 219 226 212 223 229 223 235 234 228 222 218 222 221 222 227 228 224 227 229
236 242 249 253 248 254 250 245 238 248 263 260 244 233 239 273 249 240 232 235 236 216 228 240 235 230 239 250 234 233 242 248 242 226 220 222 221 217 220 222 222 221 226
237 248 248 250 253 247 250 250 244 218 245 273 259 259 193 243 299 186 230 241 226 219 229 239 234 238 234 247 239 238 253 266 264 257 239 225 221 218 219 223 220 219 223
282 270 261 252 245 244 248 243 221 229 210 246 233 247 281 358 254 290 217 252 256 253 237 231 238 230 246 246 240 257 278 282 279 263 274 246 235 229 225 222 223 220 220
299 290 283 266 260 254 255 249 240 226 195 206 208 220 230 230 237 260 282 290 286 234 247 218 221 226 229 262 251 246 266 270 274 286 289 277 279 274 254 235 227 223 219
308 299 267 261 250 247 246 246 219 232 212 213 224 214 229 205 210 219 245 278 246 262 263 229 221 212 206 228 233 258 262 259 264 283 284 269 266 270 279 263 239 227 218
284 286 300 274 251 239 243 247 237 229 222 214 206 221 226 257 280 229 202 197 241 239 239 197 218 199 162 199 247 243 218 222 241 273 280 266 255 267 276 286 266 234 219
288 297 305 281 281 289 310 303 276 304 292 256 259 221 232 248 219 238 254 208 241 215 195 135 63 152 172 189 146 206 271 254 269 287 289 277 254 252 258 267 270 254 228
300 354 342 345 352 37 35 48 81 221 307 331 300 289 287 276 204 211 224 254 243 204 142 84 114 74 101 116 141 172 186 203 259 288 289 281 275 264 250 251 261 257 247
94 25 38 48 58 61 73 90 106 110 35 291 310 313 71 64 59 38 225 171 179 214 95 356 90 138 152 161 141 250 268 264 207 292 301 295 290 293 277 262 255 255 251
83 81 70 68 61 67 69 82 77 57 21 342 306 326 355 42 54 55 2 17 177 142 166 138 281 111 239 261 284 288 270 274 238 210 268 299 297 292 287 273 252 240 241
106 106 95 86 74 62 64 65 62 55 49 44 35 26 26 20 31 27 59 50 27 42 327 198 280 304 300 346 310 301 290 293 287 242 299 286 278 287 297 298 268 243 230
115 97 86 74 73 71 74 71 73 74 65 58 55 55 47 51 45 29 19 21 26 23 5 338 288 211 222 249 275 245 279 290 277 265 237 244 252 277 292 308 303 265 246
102 91 84 80 78 76 70 72 79 82 79 75 70 64 59 57 58 61 58 35 14 29 16 10 332 310 297 298 284 282 286 288 292 296 286 256 279 284 273 281 290 293 255
97 98 96 93 88 78 70 87 87 87 88 83 72 71 68 67 61 50 32 34 13 21 357 4 329 285 300 291 302 303 290 300 293 279 283 275 275 283 273 244 260 248 305
86 90 89 88 81 73 75 78 80 82 75 73 78 82 86 55 45 36 24 13 5 354 343 331 315 301 289 292 299 294 298 286 293 303 290 285 290 284 281 271 262 252 279
92 84 75 82 93 93 101 101 104 99 96 82 71 60 27 46 12 356 347 330 319 315 299 298 291 289 292 288 299 287 282 282 278 285 288 279 278 275 275 273 240 247 256
80 76 74 78 105 116 133 125 115 108 108 105 92 66 15 359 7 343 330 322 320 318 317 306 300 290 280 283 277 280 287 280 276 267 258 268 269 265 270 271 268 258 259
83 88 88 55 57 113 20 177 204 193 161 163 163 321 342 335 10 340 324 319 309 304 301 281 288 288 282 276 273 283 270 273 271 271 259 262 264 278 277 275 269 237 243
103 222 231 141 55 62 29 215 208 244 244 283 264 308 191 346 333 331 323 314 304 306 314 311 302 288 272 266 252 258 268 268 268 279 253 249 259 268 275 252 273 280 243